Theta_e
320 322 323 324 325 325 327 329 329 330 330 331 331 331 331 331 330 329 330 329 328 328 328 329 328 329 330 329 329 331 332 332 334 335 335 335 335 334 333 332 332 333 332 331 331 333 330 329 330 329 329 329 329 327 326 325 325 325 324 324 325 324 325 327 326 326 324 323 326 325 326 329 329 329 328 327 326 326 326 327 327 326 324 325 324
323 323 324 324 324 325 327 328 329 327 328 329 330 331 331 331 330 329 330 329 328 328 328 329 330 330 330 329 329 331 332 332 332 334 334 335 334 333 332 332 331 331 331 329 331 330 329 330 330 329 329 328 329 327 325 329 325 324 325 323 322 323 324 326 325 324 319 320 320 320 322 325 327 327 327 327 328 328 328 327 326 326 326 326 325
321 322 323 324 325 326 327 328 329 329 328 329 330 332 331 330 329 329 329 329 328 329 328 328 329 329 328 329 331 331 334 334 334 334 335 332 331 333 333 333 332 330 331 331 330 330 330 330 329 329 329 330 327 326 326 325 324 325 325 324 322 320 323 326 324 319 319 321 322 319 317 317 321 324 326 327 328 327 328 327 325 326 328 328 327
319 321 321 323 324 325 326 327 328 328 328 329 329 330 331 329 327 327 328 328 327 329 330 328 330 329 330 330 331 331 331 333 333 333 332 331 331 332 333 333 333 332 331 332 331 331 330 330 329 328 329 329 328 326 325 325 325 325 325 325 325 322 322 324 324 320 322 321 313 312 317 318 313 317 320 323 327 328 328 326 326 327 329 328 327
319 320 321 322 322 323 325 326 328 328 328 328 329 329 330 329 327 326 328 328 329 330 328 327 329 328 329 330 331 331 332 331 330 329 329 330 330 331 331 333 333 332 332 331 331 330 330 330 329 328 328 326 327 326 325 325 326 326 326 325 324 323 321 319 323 321 323 320 318 315 313 313 314 318 320 320 325 325 326 328 328 328 328 328 327
320 320 321 322 323 323 324 326 327 327 327 328 329 329 329 329 329 329 328 329 329 329 328 326 326 326 326 326 326 326 326 328 327 327 328 328 329 331 332 333 333 332 332 331 331 331 330 330 328 328 326 326 326 327 326 324 324 325 326 326 323 321 323 321 320 320 322 320 316 316 317 313 315 319 319 312 322 324 325 327 328 328 327 327 327
320 321 321 322 322 322 322 324 324 323 324 326 327 327 328 328 328 328 327 325 326 328 329 327 325 326 327 328 328 327 327 329 331 331 330 329 330 330 332 333 333 332 331 331 330 331 330 330 328 328 327 326 327 326 325 325 325 326 327 325 324 323 322 321 321 320 320 322 321 321 320 316 321 318 314 317 314 319 323 324 324 326 325 326 327
319 320 321 322 321 321 321 321 321 322 323 322 322 324 326 327 327 328 327 326 324 326 327 328 327 326 327 327 328 327 328 329 330 330 328 328 328 329 331 332 331 331 330 330 330 331 330 329 328 327 327 327 327 326 326 325 325 324 326 326 324 324 323 322 320 321 321 319 321 318 318 320 318 314 317 316 316 314 316 322 325 325 325 326 326
319 319 320 321 320 321 321 320 321 323 323 321 320 322 323 323 324 325 326 327 326 328 328 328 328 326 326 327 327 328 329 329 330 330 328 329 327 328 330 330 329 329 330 330 330 331 331 329 327 326 327 327 328 325 325 326 325 325 325 324 323 323 323 322 322 321 320 318 318 314 318 317 315 316 317 313 316 315 315 317 317 322 323 323 325
320 320 321 321 321 320 318 318 320 322 323 322 322 323 323 323 324 324 326 327 328 328 329 329 328 327 325 325 325 325 327 328 328 329 329 329 328 327 328 327 328 329 328 329 329 330 330 329 327 327 327 328 327 325 325 325 325 324 325 325 324 323 322 323 323 321 322 319 319 318 314 314 314 314 313 315 316 315 314 315 318 317 316 319 323
319 320 321 321 320 318 316 315 316 318 320 321 321 321 323 324 326 327 328 329 329 328 330 328 327 326 325 325 325 325 327 328 328 328 328 329 327 326 326 326 327 327 326 325 328 329 328 329 327 327 328 330 328 325 325 326 324 324 324 324 324 324 323 323 322 320 321 321 319 319 319 319 317 313 315 315 313 311 316 316 318 319 318 318 321
319 320 320 320 319 318 315 315 315 316 318 319 320 322 322 322 325 327 328 329 330 330 328 327 327 326 324 325 325 325 326 327 328 327 328 328 328 326 326 326 326 324 323 323 324 326 327 326 327 327 328 328 328 326 326 326 325 324 324 324 323 323 322 323 321 321 320 320 319 319 319 319 316 317 318 317 316 315 317 317 317 318 318 319 322
317 318 319 320 319 317 315 314 314 315 316 317 319 321 323 324 325 326 327 329 330 330 327 327 326 324 323 324 324 326 326 326 327 328 329 328 328 327 326 325 325 324 323 323 323 324 326 325 325 326 326 328 329 327 327 327 325 325 325 324 323 323 323 323 321 321 321 322 321 318 319 318 317 317 319 316 316 317 318 316 317 319 315 317 321
313 314 315 317 318 318 315 314 315 316 317 319 320 321 320 322 323 323 325 328 329 328 327 327 326 323 323 322 324 326 326 326 326 327 327 328 328 327 327 326 325 325 323 323 325 325 325 326 327 326 326 326 327 328 327 327 326 325 325 324 323 323 323 322 322 322 321 321 321 319 318 318 316 319 319 318 318 317 316 316 316 314 316 317 318
314 315 315 315 315 316 317 317 316 316 317 317 318 321 321 320 322 323 324 327 328 327 326 326 325 324 324 324 324 325 325 325 325 326 326 326 326 327 327 326 325 324 324 324 325 325 325 325 325 325 324 324 325 326 327 326 326 326 325 325 324 323 323 323 320 321 322 320 318 321 319 317 318 320 320 319 320 319 318 317 316 313 313 315 314
315 315 316 316 317 317 318 318 318 318 317 315 316 321 322 322 324 324 323 324 326 326 325 325 323 324 324 323 323 324 325 324 324 324 325 326 326 326 327 326 325 324 324 323 324 325 324 324 324 324 324 324 324 325 326 326 325 326 324 324 324 325 323 321 321 321 321 319 319 317 319 317 319 320 320 320 320 320 319 318 318 317 314 311 311
314 315 316 315 314 317 319 318 317 316 316 315 315 319 322 324 324 324 324 324 324 325 324 325 324 323 323 323 323 324 325 324 324 324 324 324 324 325 326 326 325 325 324 324 324 324 324 323 324 323 323 323 323 324 325 325 324 325 325 323 324 323 323 322 320 322 320 319 317 318 319 318 318 320 319 320 320 319 320 319 319 317 317 314 310
312 314 316 316 315 317 318 318 318 317 316 314 316 319 320 323 324 324 322 321 324 325 324 324 324 323 322 323 323 324 325 325 324 324 324 324 324 324 324 325 324 325 325 325 324 323 323 327 323 322 321 323 323 324 324 324 323 322 323 324 324 323 322 319 320 321 319 318 318 318 318 318 318 320 320 319 319 319 319 319 317 314 314 314 312
310 311 312 315 318 318 318 319 320 320 320 318 318 322 322 322 323 324 322 322 323 324 325 325 324 324 322 322 323 324 325 325 325 324 324 324 324 324 324 325 325 325 325 324 323 323 323 323 321 319 321 322 322 323 323 322 323 322 320 321 319 321 321 319 317 320 318 320 319 319 316 317 318 319 319 319 318 318 318 320 317 315 311 309 311
307 308 310 312 315 318 319 319 319 319 320 321 322 322 320 318 320 320 322 322 323 323 323 322 323 323 323 323 325 326 325 325 325 325 324 325 325 325 324 322 323 324 324 324 323 323 322 322 319 319 320 321 321 321 322 322 321 322 321 321 319 320 320 320 318 318 323 320 319 318 317 318 317 318 318 318 317 317 319 319 317 314 309 309 308
306 307 308 310 312 314 318 319 319 319 320 321 320 319 319 319 319 320 320 322 322 323 324 323 324 325 324 323 325 326 325 325 325 325 325 325 325 322 323 324 324 322 322 322 322 322 322 321 320 320 320 320 320 319 319 321 320 319 319 319 318 319 320 317 319 318 320 319 319 319 317 317 317 318 317 317 317 317 318 318 317 314 308 306 306
305 306 306 307 309 311 313 316 317 318 318 318 320 320 319 319 320 321 321 321 323 324 324 323 324 325 324 324 325 326 326 326 325 325 324 323 323 323 323 324 323 323 324 323 322 322 322 321 321 319 319 319 318 319 318 320 319 317 316 320 319 318 319 317 317 318 317 320 317 317 317 315 316 317 317 317 317 317 318 317 316 315 309 307 306
304 304 305 305 307 308 310 311 313 315 316 317 318 319 319 319 320 320 320 320 321 321 322 323 323 323 323 323 324 325 325 326 325 324 322 321 322 323 324 323 323 322 323 323 322 321 321 321 319 318 317 316 318 318 318 319 318 317 317 317 318 318 319 318 318 317 318 317 317 316 316 315 318 317 316 316 317 317 317 317 316 315 312 307 305
303 303 303 303 304 306 306 307 308 310 312 314 316 318 318 318 319 319 319 319 321 321 321 322 322 322 322 323 323 324 324 324 323 322 321 322 322 323 324 324 323 322 322 322 323 321 321 320 318 317 316 316 317 318 317 318 318 317 317 317 316 316 316 317 317 317 317 317 317 316 314 315 315 316 315 315 315 315 315 316 315 312 313 311 306
300 300 301 301 301 302 303 304 306 307 309 312 313 315 317 318 319 319 319 320 321 321 322 322 322 321 322 321 321 322 323 323 321 321 321 322 322 322 322 323 322 321 322 322 321 319 319 318 317 316 315 315 316 316 316 314 314 315 316 317 316 316 315 316 317 317 322 317 317 317 317 315 314 314 311 312 313 313 314 314 315 314 311 311 308
298 298 298 299 299 301 301 302 303 305 307 309 311 312 314 316 318 320 320 320 321 321 321 321 321 320 320 319 320 321 321 321 320 320 321 322 321 321 322 322 322 321 321 321 319 318 319 317 316 315 315 315 315 315 315 314 313 313 314 316 317 316 316 315 315 317 318 318 318 316 315 314 312 313 311 310 311 312 312 311 313 313 312 309 307
296 296 296 297 298 298 300 300 300 301 303 305 308 309 311 313 316 318 319 320 320 319 319 320 320 320 319 319 320 320 320 319 319 320 321 322 322 321 322 322 322 321 319 317 317 317 316 316 315 314 314 314 313 313 313 313 313 313 314 315 315 314 314 314 313 314 315 316 317 316 313 312 312 310 310 311 310 309 311 309 312 312 310 309 306
295 295 295 295 296 297 298 298 298 299 300 302 305 308 310 312 313 315 317 319 320 318 318 317 317 316 317 318 318 319 319 319 320 321 321 321 320 320 321 322 322 320 317 316 315 316 314 314 313 313 312 313 312 312 312 312 313 313 314 314 315 314 313 311 310 310 311 312 312 312 311 310 310 310 311 309 310 309 308 307 307 311 310 308 305
293 294 294 294 295 295 296 297 297 298 299 300 301 303 306 310 312 314 316 317 319 318 317 317 316 316 316 316 316 319 320 319 320 321 321 320 320 320 321 321 321 318 317 316 314 313 312 312 311 311 311 311 311 311 312 312 312 313 314 315 314 314 312 311 311 310 310 309 309 309 309 310 315 317 313 312 312 313 310 308 305 309 309 307 304
293 293 293 293 294 294 295 296 296 296 297 298 299 301 302 304 308 313 315 317 318 316 316 315 315 315 316 316 317 319 319 318 319 319 318 318 318 319 320 319 317 316 313 311 311 312 312 311 310 309 308 309 308 308 312 308 311 315 315 315 315 313 313 313 313 312 312 311 311 311 316 316 313 311 307 302 301 305 309 311 309 308 309 307 304
293 293 293 293 293 294 294 295 295 296 297 297 298 300 301 302 305 309 313 316 318 317 317 316 315 315 315 316 317 317 318 318 318 316 315 316 316 316 316 317 317 313 311 311 312 311 310 310 309 307 306 306 305 307 302 301 303 307 315 315 314 313 313 313 313 313 312 311 311 311 310 314 312 310 304 298 297 297 297 299 301 306 310 309 306
292 292 292 292 292 293 294 294 295 296 297 297 298 299 300 300 302 305 309 313 315 316 316 316 315 316 315 315 315 316 316 316 317 316 316 316 316 315 314 313 312 310 311 311 311 310 309 308 307 306 305 304 304 305 299 301 302 304 308 315 315 314 313 313 313 313 312 312 312 313 312 311 310 309 308 306 303 298 297 297 297 297 296 297 300
291 292 292 292 293 293 294 294 295 296 296 297 298 298 299 300 301 303 306 308 310 311 313 313 315 315 315 314 315 316 315 315 316 316 315 316 316 313 312 312 310 310 311 310 309 309 308 308 307 306 305 304 303 301 299 301 301 302 304 310 314 314 313 313 313 312 311 311 311 312 313 313 315 317 314 310 309 307 302 301 302 303 302 298 294
291 292 292 293 293 294 294 295 296 297 297 298 299 298 299 300 300 301 303 305 306 307 309 311 313 314 314 314 314 314 313 313 314 314 314 313 312 312 311 310 310 310 309 308 308 308 308 307 307 306 305 303 303 301 300 300 300 301 303 307 314 314 313 312 311 310 310 309 310 312 312 310 309 307 307 309 308 307 306 308 308 308 307 305 300
291 291 292 293 293 293 294 294 295 296 296 297 297 298 299 299 299 299 300 301 303 304 306 307 310 312 313 313 313 313 313 314 314 314 313 313 310 310 311 311 310 309 308 308 308 307 307 306 306 306 305 303 302 299 298 299 300 301 302 306 314 314 313 312 312 312 312 313 313 312 310 308 307 306 303 303 309 307 306 307 306 306 305 304 302
291 291 292 292 293 293 293 295 297 296 296 296 297 298 298 298 298 297 298 299 300 301 302 304 305 308 312 313 313 312 313 313 313 312 312 311 311 310 310 310 309 308 308 307 307 306 306 305 305 305 305 303 299 298 299 299 300 300 304 313 313 313 314 313 312 312 313 314 313 310 308 307 306 304 300 296 303 308 308 307 305 304 304 304 303
292 293 293 294 294 294 294 295 295 296 296 296 297 298 298 297 297 296 296 297 298 298 300 301 303 304 308 311 313 312 311 312 312 313 312 311 311 309 309 309 308 307 307 307 307 306 306 306 305 305 305 303 301 296 297 298 299 301 307 314 314 312 311 309 309 310 311 311 310 308 307 306 304 302 296 294 297 302 306 305 304 303 302 303 302
293 293 293 294 293 294 295 295 295 295 296 296 297 297 297 297 296 296 295 296 296 297 298 299 300 303 305 308 311 313 311 311 311 311 311 311 311 311 310 309 309 308 307 307 307 306 306 306 305 304 303 301 300 297 294 298 300 303 307 313 311 310 309 307 306 306 306 307 310 310 309 305 303 300 292 295 298 304 305 303 303 302 301 301 301
293 293 293 293 294 295 295 295 294 294 296 297 297 297 297 296 297 296 296 296 296 297 297 298 299 301 303 304 306 309 312 312 311 311 311 311 312 311 310 309 308 309 308 307 307 305 304 304 304 304 305 302 301 299 295 297 300 302 309 314 313 310 308 306 304 303 303 302 301 301 302 301 300 294 290 292 295 302 303 302 301 300 300 300 299
294 295 295 295 295 294 294 294 294 294 296 296 297 297 297 296 296 297 296 296 296 297 298 298 298 299 300 301 303 304 306 309 311 311 312 311 311 311 311 310 309 307 307 306 306 305 303 302 302 301 300 300 300 299 296 294 299 301 304 312 312 309 306 304 303 303 301 300 300 299 297 291 291 291 291 291 292 296 301 300 301 301 300 300 299
294 294 295 294 294 294 294 294 294 295 296 296 296 296 296 296 296 296 296 297 298 298 298 298 298 298 298 298 299 301 302 303 306 308 308 309 311 312 312 311 310 309 307 305 303 301 300 300 300 300 299 299 299 298 296 293 296 298 301 305 310 308 305 303 301 301 301 300 299 298 297 292 290 290 291 290 291 291 294 298 298 299 297 296 294
296 296 295 295 294 294 294 294 295 295 295 295 296 295 296 296 296 295 296 298 299 298 297 297 296 296 297 297 297 298 300 301 303 305 307 307 309 313 312 311 310 307 305 303 302 301 300 300 300 299 299 298 299 298 297 294 294 296 297 299 304 303 303 302 301 300 299 299 298 297 296 292 290 290 290 291 291 291 292 297 292 289 289 290 297
294 294 295 295 294 294 294 294 295 295 295 295 295 295 295 295 295 296 297 298 298 298 297 296 295 295 296 296 296 297 297 299 300 302 304 304 306 310 311 310 307 305 303 302 301 301 300 299 299 299 299 299 298 297 294 295 293 293 294 295 296 299 297 303 302 300 299 298 297 296 296 291 289 290 290 290 291 292 293 291 289 290 291 291 294
294 294 294 294 294 294 294 294 295 295 295 295 295 294 294 294 295 297 297 298 298 298 297 296 295 294 295 295 295 296 296 297 298 299 301 302 303 305 307 307 305 303 302 300 300 300 299 298 298 297 297 298 298 298 294 292 293 291 292 292 292 293 296 301 301 300 298 297 296 295 294 289 290 289 288 288 287 288 289 289 291 292 292 293 295
293 294 295 295 294 293 293 293 294 295 295 295 295 294 294 294 295 297 297 297 298 298 297 295 294 294 294 294 295 295 295 296 297 298 299 300 301 303 303 304 303 302 301 300 299 298 297 296 296 295 296 296 296 297 296 294 292 291 291 291 291 291 291 293 297 296 294 291 288 288 289 289 288 288 289 289 290 287 287 289 290 292 296 292 294
294 294 294 294 294 294 294 293 294 294 294 295 295 295 293 294 296 296 297 297 297 297 297 296 295 294 293 294 294 294 295 295 296 297 297 298 299 300 301 301 301 300 299 297 296 296 295 295 295 295 294 294 295 295 294 294 294 295 293 291 291 291 292 292 293 292 289 288 289 289 289 289 290 290 292 291 289 289 290 291 291 293 292 292 291
292 293 294 293 293 293 293 293 293 294 294 294 294 294 295 295 295 296 297 296 296 296 296 296 295 294 294 294 293 293 294 294 294 295 295 295 295 297 297 297 297 297 296 295 295 294 294 293 293 293 293 293 293 292 292 293 293 293 293 293 294 294 293 293 294 294 293 292 292 292 290 289 289 289 290 290 291 291 291 291 291 290 290 290 289
292 293 293 292 292 291 292 292 292 292 293 293 294 294 295 295 296 296 296 296 295 295 295 296 296 295 294 294 294 290 292 292 292 291 292 294 295 294 292 291 292 294 295 294 294 294 294 294 293 293 293 293 292 292 292 291 291 292 293 293 292 292 291 291 293 293 293 294 293 291 291 292 292 292 292 292 291 290 289 288 289 288 287 287 290
291 291 292 291 291 291 291 291 291 292 292 293 293 293 294 294 295 296 296 295 294 294 295 295 295 295 294 294 294 294 293 293 293 292 291 290 291 293 293 292 292 292 294 295 294 294 294 294 294 293 293 292 292 292 292 289 288 287 288 292 291 291 292 291 290 292 294 293 292 291 290 290 289 288 288 288 288 289 287 288 288 287 286 286 286
290 291 291 291 291 291 291 291 291 292 292 292 292 293 294 294 294 295 295 294 294 294 293 293 294 294 294 294 294 294 295 294 294 293 293 292 289 289 291 293 291 290 290 290 291 292 293 294 293 292 292 292 293 293 290 288 288 287 287 287 288 288 288 291 291 291 292 290 288 288 287 287 288 288 287 287 286 286 286 287 286 286 285 285 284
290 290 290 290 289 290 290 289 290 291 292 292 292 292 292 293 293 294 294 293 293 293 292 292 292 292 292 293 293 293 293 294 294 294 294 293 293 293 290 289 290 290 290 289 289 289 289 290 293 292 291 289 289 289 289 289 288 287 287 287 287 288 289 290 291 290 289 288 288 288 286 286 286 286 286 285 285 286 286 285 285 284 284 284 283
Wind_Speed
4 6 7 8 8 8 7 7 7 7 7 8 9 10 10 10 10 11 9 9 9 8 8 8 8 6 3 6 8 6 6 5 5 3 5 4 6 5 6 5 5 5 4 5 5 5 4 4 4 3 4 5 6 5 5 4 5 6 6 4 8 7 4 5 5 7 9 6 5 6 5 4 5 4 4 2 2 2 2 4 2 3 2 3 3
6 6 8 8 8 7 7 7 7 10 9 9 10 10 10 11 11 10 9 10 8 9 8 8 7 8 7 4 2 3 4 5 4 3 5 5 4 3 3 2 1 2 3 3 3 5 5 5 4 5 4 5 5 4 4 4 5 6 6 5 1 6 5 6 7 6 2 5 6 4 4 3 4 4 4 3 2 2 2 3 3 3 3 3 3
8 8 9 8 8 7 6 6 6 8 9 11 9 8 8 7 7 8 8 9 8 7 6 6 2 3 5 4 4 4 4 3 2 2 4 5 6 4 5 3 1 0 3 3 5 4 5 5 5 5 5 6 6 5 4 5 5 6 6 7 5 2 3 4 4 1 5 4 4 4 2 2 1 2 2 3 2 2 3 3 3 3 3 3 3
13 15 13 10 7 6 3 1 3 4 5 6 5 4 0 0 1 3 3 2 2 3 2 1 4 6 7 6 6 4 3 3 3 1 3 5 6 7 6 6 5 3 3 5 5 4 5 5 5 5 5 5 7 6 5 5 5 5 5 5 7 6 3 4 3 1 5 9 3 2 2 2 2 1 2 1 2 1 3 4 2 3 4 4 3
12 10 9 9 6 4 3 3 4 2 2 2 3 3 4 4 3 3 4 5 4 4 3 2 4 6 6 7 6 6 4 4 3 0 1 2 3 6 7 6 6 5 4 4 5 6 6 5 6 5 5 4 5 6 6 7 6 5 6 6 7 7 6 4 4 2 6 0 6 5 3 1 2 2 3 2 1 2 2 4 5 5 4 3 3
6 6 5 4 5 5 4 3 3 3 4 4 5 5 6 4 1 0 2 2 3 4 2 2 2 4 5 5 4 3 4 4 5 6 5 5 5 3 7 7 7 7 5 5 5 6 6 6 5 6 5 5 5 6 6 4 5 5 6 7 6 4 8 6 5 2 5 1 1 2 5 5 6 4 4 3 0 1 2 3 3 4 4 4 3
4 5 6 7 5 6 5 3 2 2 1 1 3 6 9 10 8 6 4 1 1 1 1 2 3 3 4 4 4 5 5 3 3 3 3 1 2 5 5 6 7 7 6 5 5 6 6 6 6 6 6 6 5 6 6 7 6 6 5 5 5 5 4 7 7 5 3 3 1 1 1 1 7 8 4 4 3 1 2 2 2 4 3 5 4
7 7 6 3 4 4 5 4 2 1 1 1 0 1 3 6 8 9 7 5 2 2 4 3 5 4 5 5 6 5 6 5 5 4 5 2 1 0 3 5 6 5 6 5 5 6 6 6 5 6 6 6 5 6 7 6 4 3 4 5 4 5 6 7 6 6 8 4 1 2 3 4 4 3 4 5 5 5 2 2 3 4 4 3 3
6 6 6 4 4 5 5 4 3 2 1 2 2 0 0 0 2 3 5 6 6 6 5 5 6 6 6 6 6 3 5 4 4 5 5 4 5 3 4 6 6 5 5 6 6 6 5 6 5 5 5 5 5 5 4 6 7 7 6 5 5 5 5 4 6 7 5 5 4 3 4 3 2 2 4 2 4 4 2 3 3 3 4 3 3
6 5 4 3 3 4 3 3 3 3 2 2 3 4 4 4 5 5 4 4 7 9 7 7 7 8 8 7 7 5 5 5 5 5 6 5 6 6 5 5 5 6 5 5 6 5 5 5 6 6 5 6 5 6 6 5 5 6 7 7 6 6 4 5 7 5 5 4 4 5 3 2 3 2 1 4 4 2 5 5 3 4 4 2 3
5 5 4 3 2 2 2 3 2 2 1 2 2 2 2 3 6 8 8 6 7 9 8 7 7 7 7 6 8 8 7 7 7 6 6 6 6 5 5 4 4 5 5 4 5 6 6 6 6 6 5 6 5 5 6 6 5 6 5 5 6 7 6 5 4 4 5 4 4 6 7 8 7 5 6 4 4 3 5 5 4 3 3 4 2
4 3 4 4 3 0 0 1 0 2 3 2 2 1 0 1 3 7 10 11 9 10 9 8 7 7 4 6 8 8 8 8 9 10 9 9 8 7 4 4 3 3 3 4 4 5 5 5 5 5 5 5 5 5 4 5 5 4 4 5 5 5 4 5 4 5 5 5 4 5 6 5 4 5 7 6 7 6 7 6 5 4 4 3 3
4 3 3 3 3 1 1 1 2 3 4 4 5 4 2 3 4 4 8 11 10 10 10 9 7 5 3 4 3 5 8 10 10 10 9 8 8 8 7 6 5 5 5 5 5 5 5 6 5 6 5 5 5 4 4 4 5 5 5 5 5 5 6 6 5 6 7 7 6 4 5 4 3 3 6 5 5 6 8 7 4 3 3 3 2
6 5 5 4 4 4 3 4 4 3 3 5 4 1 2 2 2 3 2 6 8 7 7 10 8 5 4 3 6 7 9 10 9 9 9 8 8 9 8 7 7 7 7 7 6 6 5 6 6 6 5 5 5 5 5 5 6 6 6 6 6 6 4 5 5 5 5 4 5 6 5 5 4 5 6 6 7 8 7 8 6 3 2 3 2
7 8 6 6 5 5 4 3 4 4 3 1 1 0 2 2 2 2 3 3 7 7 7 9 4 6 7 7 6 4 4 5 6 6 7 8 8 9 8 7 7 6 7 6 5 6 6 5 5 6 5 5 4 4 5 5 5 5 5 5 4 4 5 5 4 4 5 4 4 5 5 4 5 6 6 6 6 7 9 8 9 8 3 2 2
6 7 6 6 5 4 4 3 4 4 5 2 2 1 1 1 1 2 4 2 6 7 8 8 6 6 7 7 6 6 4 4 4 5 5 7 9 9 9 9 7 6 5 4 5 5 6 6 5 5 5 5 4 4 4 4 5 5 5 4 4 2 5 4 4 4 4 4 4 3 5 4 4 5 5 6 6 6 7 7 7 8 10 5 2
6 6 4 3 2 2 1 2 3 3 3 4 2 2 3 3 3 3 3 1 6 9 12 11 10 10 9 9 9 10 10 9 8 8 8 5 5 6 8 8 7 6 6 5 6 5 5 5 6 5 5 5 4 4 4 4 4 5 5 5 5 3 4 5 4 5 4 4 4 4 4 5 4 4 4 5 5 5 6 7 7 9 9 9 6
9 8 5 4 3 3 3 2 3 5 4 3 3 2 1 3 4 5 5 7 8 10 12 12 11 11 10 10 10 10 9 9 8 8 7 7 6 5 4 6 8 7 6 6 6 6 5 6 5 5 5 5 5 4 4 4 4 4 4 4 4 5 4 3 3 4 4 3 3 3 3 4 3 5 5 4 5 6 7 6 5 3 3 8 7
8 9 8 8 6 5 4 4 5 5 5 3 2 2 2 3 5 7 12 14 12 11 11 7 6 6 4 5 6 7 6 7 7 6 6 8 8 7 6 6 6 6 7 6 6 6 6 5 4 4 5 5 5 5 4 4 4 5 3 4 3 4 5 4 3 3 3 4 4 4 3 3 4 5 5 5 4 5 6 6 1 2 3 3 5
8 7 8 8 9 8 5 6 6 7 6 6 5 3 4 7 7 5 3 2 5 9 6 7 4 1 3 5 6 7 6 7 7 8 8 8 8 6 2 2 1 2 5 6 7 6 5 5 3 4 4 5 5 5 5 5 5 5 5 5 3 4 4 4 3 2 3 4 4 4 3 4 4 4 5 5 5 5 7 7 5 4 3 4 6
7 6 7 9 9 9 9 6 6 5 5 5 4 5 5 5 7 6 4 3 7 7 6 6 4 3 3 5 6 6 7 5 6 8 9 8 4 6 5 5 3 0 2 2 6 6 6 5 4 4 5 5 5 5 4 5 5 4 4 4 4 4 5 3 4 3 2 3 4 4 4 3 4 5 5 5 5 6 6 6 5 4 4 4 6
7 8 9 8 9 9 10 8 5 6 7 7 7 7 6 5 5 4 3 5 4 4 5 5 4 6 7 6 5 3 4 4 6 7 7 5 8 8 8 6 6 4 5 3 3 5 5 6 6 5 5 5 5 5 4 5 5 5 4 4 5 5 4 4 4 4 3 2 3 3 3 3 3 5 5 5 6 6 6 7 5 5 5 4 4
8 9 8 7 8 8 7 9 9 9 8 8 7 7 7 8 7 5 4 3 4 4 4 4 5 5 3 2 5 4 1 4 5 4 3 8 8 6 8 9 7 6 5 8 3 3 5 6 5 5 5 4 5 5 4 5 5 5 6 4 4 5 5 5 4 4 4 3 3 3 4 3 4 5 5 5 4 4 4 6 4 4 5 4 4
8 7 7 7 7 8 9 10 9 8 8 8 8 8 7 6 6 6 7 6 5 3 1 3 5 2 2 5 5 5 6 3 1 2 6 8 6 6 7 8 7 6 8 7 8 3 5 5 6 5 5 5 5 5 5 4 5 5 5 5 5 4 4 4 5 4 4 4 4 5 4 4 4 5 4 4 3 4 4 4 4 4 5 5 4
9 9 9 10 11 11 10 9 9 9 8 8 9 9 8 8 7 8 7 6 5 4 3 2 3 1 4 2 2 1 4 5 4 5 5 5 5 5 4 4 6 6 7 8 7 3 5 5 6 6 5 6 6 6 6 4 4 4 5 5 5 4 4 4 4 4 5 5 5 5 5 4 4 5 3 4 4 4 3 3 4 4 4 4 4
9 10 10 11 9 9 10 10 9 9 9 9 10 10 9 9 9 8 7 7 5 3 3 3 4 5 3 2 5 5 6 5 6 6 6 4 3 2 4 5 4 5 5 6 7 5 5 5 5 5 6 6 6 6 6 6 5 4 4 4 4 4 4 4 3 4 5 5 5 4 4 4 3 5 5 4 4 5 3 4 4 4 4 4 4
9 8 7 7 10 11 10 11 10 10 11 10 10 10 9 9 9 8 8 6 5 3 1 0 2 3 3 2 4 5 4 6 7 5 4 6 6 4 5 7 6 0 4 5 5 6 4 5 4 4 5 6 6 5 5 5 5 4 4 5 5 5 5 4 3 4 4 3 4 4 4 3 4 4 5 5 5 4 4 5 5 4 4 5 5
7 8 10 10 9 9 11 11 11 11 11 11 11 10 10 9 9 9 9 6 4 2 0 0 1 3 3 3 3 3 5 7 7 6 6 6 3 4 5 6 6 4 6 6 6 5 4 4 4 4 3 4 5 5 5 4 4 5 6 5 6 6 6 6 4 4 3 3 4 3 3 3 4 4 5 4 5 5 4 4 4 4 5 6 5
9 9 8 8 10 9 10 11 11 11 13 13 11 11 10 9 9 9 8 8 5 1 1 1 2 2 1 3 4 4 5 6 7 8 8 7 7 6 6 5 7 7 5 5 5 6 6 5 4 4 4 3 5 4 5 6 6 5 6 8 7 7 8 7 6 5 4 4 3 3 3 3 4 6 6 4 4 5 6 5 3 5 5 5 4
8 8 8 7 8 9 9 10 12 13 13 12 11 11 11 11 11 10 9 8 6 2 2 1 3 2 1 3 5 7 5 6 6 5 4 5 5 6 7 5 5 4 4 4 5 5 6 6 5 4 4 4 4 2 5 10 9 8 7 7 7 7 7 8 8 7 5 4 4 4 4 10 11 10 9 7 6 4 3 4 6 7 6 5 6
8 8 8 8 9 10 11 13 13 13 12 10 11 11 11 12 12 12 11 10 8 5 4 4 2 1 3 3 5 5 6 6 6 6 4 4 3 1 1 6 4 2 4 5 6 6 5 5 6 5 4 4 3 2 9 11 11 13 9 8 8 7 7 8 7 8 7 6 5 5 4 6 7 8 7 10 10 10 10 10 9 6 3 6 8
9 9 9 10 11 11 12 12 12 12 12 12 12 11 11 12 11 12 11 11 11 10 8 7 6 5 4 3 4 5 6 6 6 6 5 5 1 2 0 4 7 5 4 6 7 6 6 6 6 6 5 4 3 4 12 12 13 13 11 8 7 8 7 7 7 8 7 7 6 6 4 4 4 4 4 6 8 10 11 11 12 11 12 12 9
7 8 9 9 9 10 10 10 10 10 11 11 11 10 11 11 11 10 10 11 11 10 10 9 8 7 6 4 2 5 6 4 5 6 6 5 5 0 2 6 7 5 6 7 6 6 6 5 7 7 5 3 4 5 10 13 13 14 14 11 7 8 8 6 6 6 6 6 6 7 6 6 6 10 6 5 5 6 8 10 9 11 11 11 9
6 8 8 8 8 8 8 8 8 8 9 8 8 9 9 9 9 10 11 10 11 10 10 9 8 8 7 6 4 3 6 6 3 3 6 3 3 3 1 3 7 6 7 7 6 7 6 6 6 7 6 4 4 5 8 11 13 13 14 11 7 7 7 7 6 6 5 6 5 7 6 6 5 5 4 4 4 5 5 5 7 6 6 9 11
7 8 9 8 8 8 9 10 10 9 9 9 10 11 9 10 11 11 11 11 10 11 11 10 9 8 7 7 6 4 5 5 5 4 4 7 3 3 2 5 7 8 8 7 8 7 6 6 6 7 7 5 3 4 8 11 14 14 14 11 7 7 7 6 6 6 5 6 7 7 7 7 5 6 4 3 4 4 5 5 6 6 5 6 7
6 7 7 7 8 8 8 8 8 8 9 9 10 9 10 10 9 10 11 11 11 11 12 11 11 9 8 8 6 5 5 5 6 7 6 6 4 3 4 7 7 8 6 8 6 7 7 7 5 5 8 6 3 4 5 8 14 14 14 8 8 8 8 7 7 7 6 6 6 7 7 7 6 6 5 7 5 4 6 6 6 4 5 5 6
5 4 5 5 5 7 8 7 7 8 9 10 9 8 8 9 10 10 10 11 11 12 12 11 10 10 8 7 7 6 6 6 5 8 7 7 5 2 2 3 11 7 9 7 8 7 5 7 8 6 6 7 5 7 5 5 7 12 12 8 8 8 8 8 7 6 6 6 6 6 7 7 7 5 4 6 6 8 6 6 5 5 5 6 6
4 5 5 5 5 5 6 7 8 10 10 8 8 8 8 10 10 10 11 11 12 12 11 11 10 9 9 7 7 7 7 7 6 7 6 7 8 5 6 7 5 10 9 8 8 8 7 7 9 9 7 6 4 7 7 2 7 10 10 9 7 7 8 7 7 6 6 6 7 10 7 7 7 5 4 8 6 7 7 5 5 6 6 6 6
4 4 6 7 7 5 6 7 9 12 11 10 8 7 10 10 10 10 10 12 12 11 11 10 10 9 9 9 8 7 6 6 6 5 6 6 8 9 7 10 8 7 9 7 7 9 9 8 9 10 12 8 5 7 11 6 9 9 8 7 9 8 7 6 7 6 6 6 6 8 9 8 7 6 9 9 8 7 6 5 5 7 6 5 4
4 4 4 4 4 8 11 12 12 10 9 10 8 7 11 10 10 10 12 12 11 9 9 9 9 9 9 10 9 9 8 7 6 6 5 6 6 8 11 10 9 7 9 8 7 8 10 8 8 10 8 7 7 7 10 11 9 10 10 8 7 9 8 7 6 6 6 5 5 4 5 8 11 11 11 11 11 11 8 5 5 6 6 5 2
3 4 5 6 7 8 8 8 7 7 8 8 7 8 10 9 10 12 12 10 8 7 8 9 9 10 10 10 10 9 9 8 6 5 6 5 4 9 10 10 9 7 8 10 10 9 9 9 10 9 9 9 7 6 10 12 11 11 11 10 6 7 8 8 7 6 5 5 5 5 4 8 11 12 11 12 12 11 8 6 6 6 3 1 1
5 6 6 5 7 8 8 9 9 8 8 7 7 9 9 10 11 12 10 8 8 7 7 8 10 10 10 10 10 9 9 8 7 5 7 6 4 7 10 9 7 8 10 10 9 9 10 9 9 8 9 9 10 13 8 13 14 14 13 12 9 6 6 9 8 6 5 5 5 4 4 6 10 11 12 12 12 12 11 8 6 5 4 4 3
6 7 7 7 8 9 9 8 7 8 7 7 7 10 10 10 12 10 8 8 8 6 8 8 9 10 11 11 10 11 9 8 8 7 6 6 5 7 8 9 10 9 10 9 8 7 9 9 9 8 8 9 7 8 15 12 14 15 15 14 13 9 8 7 8 7 6 5 4 4 4 7 10 11 11 11 12 12 9 6 6 5 3 1 2
6 5 4 5 7 7 8 8 7 8 8 8 8 8 9 10 10 8 8 9 8 7 7 9 10 9 10 10 10 10 9 9 10 8 6 8 7 7 7 7 8 9 9 9 6 7 8 9 9 8 8 7 6 7 12 14 12 15 15 14 14 13 12 8 8 6 5 5 5 4 3 6 9 10 10 9 8 7 6 6 7 6 6 5 5
5 5 5 5 7 7 7 8 8 9 8 8 8 8 9 10 8 7 8 8 8 8 8 9 10 9 9 9 10 10 10 10 10 8 8 8 8 8 9 6 7 8 8 9 6 7 9 8 9 8 7 6 7 7 7 10 13 13 14 13 13 13 10 9 7 4 4 4 3 3 6 9 10 9 7 6 7 7 9 10 11 10 7 5 5
4 5 6 5 6 7 8 9 9 9 8 8 8 7 9 6 6 6 6 6 7 8 9 8 8 9 9 10 11 11 11 11 11 8 9 7 8 8 8 7 7 7 7 8 7 8 8 8 8 7 7 5 5 5 6 6 6 7 8 10 11 10 10 11 10 8 9 10 9 11 11 10 9 6 6 7 7 6 10 12 12 9 6 6 5
4 4 4 6 6 7 7 8 9 8 8 8 8 7 6 5 6 7 7 7 8 8 8 8 9 8 9 10 10 9 9 10 11 8 10 9 8 8 9 9 8 7 7 8 8 7 7 8 8 7 6 6 5 5 5 5 5 5 5 4 5 6 7 8 8 7 8 8 10 9 9 10 10 11 11 8 8 7 8 8 7 6 6 5 5
3 4 4 5 6 6 7 7 8 8 7 7 8 7 7 6 5 5 4 6 8 8 7 7 8 7 7 8 8 11 12 9 10 10 10 9 9 9 10 9 7 6 6 8 7 7 6 6 6 5 5 5 5 4 4 4 4 4 4 4 4 5 5 5 7 6 7 7 7 7 8 6 6 7 7 7 7 6 6 6 6 6 6 5 5
6 5 5 5 4 5 6 7 7 7 7 8 9 8 8 8 6 5 4 7 7 7 7 7 6 7 7 7 7 7 8 8 8 10 9 8 8 7 9 9 9 5 5 6 7 7 6 4 4 4 5 5 4 4 2 2 2 4 4 4 5 4 4 6 4 6 7 5 6 8 7 7 7 7 6 6 6 6 5 4 5 5 5 5 6
3 4 5 4 4 5 6 6 6 6 8 8 8 8 8 8 7 7 6 7 6 7 7 6 5 6 5 6 6 7 7 7 7 7 9 11 13 15 10 9 8 12 16 14 9 6 4 3 5 4 3 4 4 1 2 4 3 5 7 7 6 4 3 5 5 7 7 8 7 7 6 6 6 6 6 6 5 5 5 5 5 5 6 6 6
3 5 4 4 4 4 5 6 6 6 7 7 8 8 8 8 8 7 7 6 6 6 6 5 5 5 4 5 6 6 6 7 6 7 8 9 9 12 16 16 14 14 14 14 13 12 11 9 6 4 4 6 3 2 1 4 5 5 5 5 5 6 7 6 4 8 9 7 7 8 6 6 5 5 5 5 3 5 5 6 5 3 4 6 6
Wind_Direction
163 171 189 194 187 185 177 168 164 162 166 170 174 175 176 170 170 183 180 182 180 176 179 179 185 185 210 201 199 178 174 186 202 180 173 166 174 170 162 168 164 159 163 163 147 133 137 123 135 134 129 121 126 145 151 139 128 124 118 108 124 116 110 119 121 120 116 90 85 74 60 57 78 97 96 101 110 128 115 105 92 79 79 97 107
147 174 196 197 191 184 178 173 159 161 178 183 192 185 181 178 182 185 187 193 185 182 180 184 191 195 188 189 107 97 132 167 174 167 168 152 131 98 84 70 171 157 160 158 141 140 139 143 146 146 137 124 120 138 137 127 115 118 129 97 63 132 136 153 160 135 70 132 130 113 76 68 63 79 103 90 106 110 110 105 101 117 122 107 98
184 195 199 197 187 181 182 182 181 180 175 193 194 189 185 184 193 196 199 197 196 185 178 188 164 38 41 60 88 83 67 88 133 163 153 133 113 112 118 121 81 346 168 161 152 155 152 148 146 143 150 137 129 137 140 141 143 145 157 142 124 53 103 159 173 70 132 116 94 97 137 98 98 68 78 68 78 48 97 107 103 110 129 122 109
187 191 193 193 194 180 158 212 192 174 193 201 205 212 81 125 263 249 249 283 313 274 263 52 85 77 65 80 83 78 102 100 93 102 122 124 128 138 136 157 157 159 232 166 159 154 152 146 146 151 161 157 148 148 159 166 162 155 149 151 138 128 143 182 190 183 136 138 126 166 137 103 143 204 110 35 62 120 128 122 118 110 135 123 103
185 182 184 188 166 119 59 17 15 345 339 22 40 34 41 20 355 357 0 353 349 344 341 17 83 74 73 69 82 89 89 98 118 50 270 168 125 158 158 158 166 181 186 177 157 149 153 168 161 152 157 161 150 154 169 181 180 169 160 152 165 152 159 164 195 168 190 313 137 124 71 180 227 139 127 67 1 93 97 134 140 139 125 111 106
221 206 163 115 88 101 112 128 165 189 170 162 146 138 132 137 149 53 358 0 7 342 7 34 56 95 100 111 119 127 145 163 172 179 192 188 181 170 159 166 173 183 186 176 162 152 164 167 155 151 160 165 166 164 164 168 172 170 178 166 168 176 155 156 174 207 201 129 90 137 165 170 164 151 162 149 45 59 109 114 125 127 128 125 107
117 131 144 143 149 132 119 113 89 74 347 215 186 163 157 157 155 151 154 136 62 63 56 83 89 94 106 121 131 152 154 170 169 163 154 199 143 176 161 160 164 177 182 174 166 161 160 161 163 162 164 172 166 156 166 183 185 181 168 166 179 147 142 166 175 174 177 258 132 62 104 153 149 144 192 111 139 165 121 86 85 100 103 120 131
149 147 150 125 90 93 108 113 113 133 229 175 171 303 192 168 156 150 144 135 113 74 98 122 128 137 140 145 152 156 166 165 159 136 101 66 20 307 169 163 161 170 166 166 170 164 162 162 162 163 167 174 166 171 175 179 171 164 170 174 155 167 167 168 169 168 174 209 103 89 65 97 104 77 129 156 126 143 127 59 78 113 105 82 104
140 136 141 137 125 122 138 128 130 137 253 160 170 266 334 12 97 119 130 133 123 115 127 133 145 164 170 160 147 144 141 153 130 129 147 168 173 190 188 174 161 173 171 167 173 167 164 163 165 169 171 171 167 154 162 172 171 161 163 166 181 184 184 169 158 178 180 172 111 61 90 100 68 90 124 96 138 141 98 133 121 86 84 71 107
119 131 127 114 105 116 130 128 135 142 197 210 174 161 164 152 128 117 123 130 127 124 143 150 163 176 176 171 144 140 145 147 141 145 153 173 158 172 189 176 169 164 172 177 166 168 161 162 170 174 176 173 166 166 163 168 168 166 172 177 172 179 188 174 184 175 174 151 139 146 119 115 79 81 65 110 74 65 152 143 130 132 128 84 82
133 144 149 109 98 125 156 149 153 152 218 246 213 201 185 157 144 140 145 134 131 143 153 149 171 189 181 149 152 159 163 154 156 161 158 163 172 171 187 199 171 166 161 166 169 165 164 169 171 175 177 178 171 164 171 172 177 176 175 164 170 175 180 178 168 152 157 153 152 159 161 174 172 171 178 170 148 136 116 123 112 100 111 113 54
135 140 125 120 113 271 147 113 252 239 231 254 311 342 324 182 157 153 153 149 145 148 138 167 183 197 161 161 174 176 163 165 170 174 175 176 171 167 171 154 156 148 153 155 171 168 161 165 167 165 174 177 184 177 169 167 168 171 172 175 177 177 162 158 149 148 155 160 166 175 182 181 163 156 171 158 149 146 135 132 126 116 96 73 109
49 75 128 144 167 209 286 317 348 335 346 357 345 325 291 219 179 178 168 160 150 147 156 182 196 184 148 186 194 177 175 180 181 177 178 175 171 169 168 170 154 163 176 177 187 176 164 154 160 167 175 188 186 177 183 160 159 172 178 179 172 173 178 168 161 173 168 168 179 185 171 171 163 140 135 130 107 119 126 124 99 98 103 105 102
26 18 11 358 5 11 6 348 338 342 353 351 346 343 308 309 274 249 224 155 141 137 165 191 192 127 120 177 208 199 189 184 189 181 178 178 174 175 175 173 174 181 177 193 185 179 176 177 171 178 179 178 184 186 179 169 162 171 176 175 178 183 166 175 179 173 174 174 149 160 176 162 156 146 141 134 138 126 131 137 127 73 85 109 88
36 33 28 24 14 15 7 354 336 331 323 298 289 27 321 325 321 212 192 129 126 146 197 214 149 134 176 190 206 232 225 191 185 189 182 178 181 178 176 169 179 181 184 192 177 181 185 178 183 177 179 177 178 177 178 168 163 161 175 177 164 167 175 173 177 164 175 167 168 170 160 148 153 156 148 153 149 150 144 150 138 128 88 88 58
46 44 39 43 37 25 18 350 332 326 317 299 303 242 212 255 309 204 174 158 134 161 209 224 158 171 179 184 189 200 212 217 192 178 203 199 183 184 177 172 178 174 178 169 191 183 188 185 182 185 177 170 173 170 170 167 162 161 159 158 164 165 164 175 181 171 183 176 171 146 141 157 154 160 163 157 159 147 140 145 146 146 142 146 99
50 53 43 29 33 32 4 322 318 308 313 287 256 249 213 188 191 188 173 153 177 201 204 216 188 183 190 180 179 191 192 190 194 190 191 206 205 197 183 176 164 168 172 176 181 193 192 183 182 177 173 167 164 165 166 168 163 160 154 151 159 160 161 173 161 175 185 169 146 153 148 147 160 158 154 152 143 137 147 154 164 164 157 144 164
20 19 17 21 12 0 340 319 320 320 308 295 288 314 314 239 199 170 163 255 230 219 221 213 195 197 196 183 185 190 192 188 185 189 184 186 202 210 195 164 171 170 171 174 178 184 190 193 178 173 169 166 169 162 164 165 153 150 150 158 158 150 145 137 159 151 156 146 123 107 120 134 154 156 165 155 150 150 153 161 153 109 130 153 161
16 8 2 4 3 356 358 2 359 348 341 335 300 304 287 246 217 199 170 193 216 234 242 243 206 201 177 169 177 187 192 196 188 184 185 185 196 203 199 184 157 160 165 165 169 180 190 189 172 167 166 169 164 166 162 157 151 146 149 147 141 143 137 138 140 136 150 136 135 122 119 132 153 154 149 146 141 130 113 104 65 54 89 109 135
14 5 0 2 9 13 20 18 23 18 8 0 342 329 342 351 342 335 332 288 268 240 269 281 284 244 160 166 188 188 187 190 188 181 194 197 194 194 177 93 82 143 171 163 168 177 180 175 164 157 161 161 163 166 163 152 148 152 148 142 144 134 136 144 131 120 140 136 136 139 157 153 152 137 140 140 133 132 151 144 151 128 91 114 118
13 6 2 10 11 8 10 17 14 4 9 6 2 5 357 357 332 338 315 249 243 266 265 263 278 253 215 204 196 184 181 182 185 189 195 199 147 87 97 126 128 1 355 183 173 172 168 167 148 149 154 157 161 158 157 148 148 142 146 142 141 141 143 143 134 123 124 140 146 149 152 153 146 132 135 136 138 144 141 148 151 125 110 132 126
12 13 14 9 5 11 13 6 11 13 16 17 2 354 3 356 352 341 337 321 307 267 240 248 236 231 224 206 189 161 151 181 193 194 193 150 113 163 164 141 161 159 116 22 283 173 165 159 147 147 145 148 154 157 153 151 145 141 140 144 145 142 137 137 136 143 143 136 132 132 106 94 103 122 138 148 147 146 156 153 161 149 147 165 160
5 9 9 3 8 7 9 16 15 13 18 21 21 10 4 355 1 2 356 315 298 329 313 276 242 238 250 44 37 43 16 212 194 196 150 114 154 169 155 158 168 158 146 141 247 236 154 146 138 139 141 146 152 157 158 150 152 150 147 147 148 143 144 140 137 149 148 133 120 102 97 117 127 121 137 142 138 147 156 164 156 147 159 174 184
11 9 10 11 8 14 12 4 4 9 12 17 23 23 9 352 345 346 343 338 339 351 347 322 305 310 107 161 141 148 200 225 198 74 90 140 169 156 162 153 157 157 155 160 166 229 146 139 134 139 149 150 152 157 157 156 158 156 152 150 146 139 139 141 138 143 138 128 124 106 118 125 132 131 138 120 113 132 165 172 160 151 160 182 185
9 10 9 11 15 16 14 1 360 4 10 13 19 19 9 355 349 348 337 335 350 355 13 48 38 160 219 136 127 191 209 174 108 77 128 161 157 125 122 151 154 165 166 161 161 194 143 136 137 146 151 152 161 160 153 149 160 165 158 152 148 138 136 139 147 136 120 122 132 139 136 121 134 119 116 126 132 146 183 179 190 167 160 178 177
5 3 7 11 5 5 6 2 1 3 8 13 17 16 5 356 349 345 338 328 333 351 16 79 122 192 194 116 145 171 194 175 115 117 166 133 103 124 153 141 152 170 158 172 154 180 145 145 141 147 153 154 153 159 158 160 166 164 158 150 137 122 116 110 106 119 140 142 139 143 119 125 129 139 161 163 157 163 169 187 205 200 169 158 172
12 8 1 3 12 5 353 4 6 7 9 10 12 11 3 352 341 341 338 336 329 330 354 53 173 216 208 149 153 185 159 107 102 135 162 140 179 179 159 160 144 99 194 167 167 150 144 137 138 133 145 148 147 146 143 147 154 153 145 125 105 103 101 94 92 116 130 130 133 127 133 139 157 157 157 168 164 163 174 201 199 192 168 152 162
8 13 18 20 6 360 359 357 353 0 10 13 8 5 359 351 341 338 335 332 339 324 353 118 191 184 172 151 152 160 108 108 114 139 147 130 177 214 201 157 142 161 220 170 158 145 130 118 123 121 118 132 128 118 118 122 130 137 126 122 125 115 101 90 84 81 93 100 90 103 134 138 148 163 149 148 145 138 131 169 204 175 167 151 153
6 6 4 7 17 354 358 359 356 357 4 3 3 356 352 350 349 340 330 324 313 283 242 116 84 40 132 151 129 109 116 116 129 151 152 146 185 211 192 170 160 176 208 172 134 122 114 93 76 89 93 91 101 109 130 129 121 122 129 130 128 118 111 103 93 82 76 87 83 86 102 151 146 129 121 123 129 143 143 133 173 154 151 140 133
4 3 359 1 7 1 2 5 10 9 6 4 360 356 355 354 353 344 339 330 319 318 323 55 81 90 52 101 123 141 138 125 119 109 116 151 180 194 191 160 160 164 164 129 117 117 117 118 104 78 71 75 71 63 127 135 137 135 128 119 114 117 117 116 110 99 83 78 87 93 76 77 74 76 74 73 71 65 52 110 156 158 147 145 152
1 358 358 7 12 13 11 12 8 3 0 2 2 356 358 2 356 353 349 346 349 352 358 18 47 38 57 101 130 127 129 127 123 106 102 74 47 22 330 131 150 168 135 124 125 116 111 113 114 111 91 68 52 72 125 122 128 126 122 123 122 119 117 117 119 119 116 102 84 77 86 83 86 90 86 76 64 54 57 65 71 78 124 155 154
0 358 4 13 14 14 16 11 1 352 355 2 358 351 5 3 355 358 354 360 6 13 14 12 9 3 29 60 109 114 115 124 131 119 116 133 118 41 185 143 143 133 121 114 117 121 117 114 102 92 87 82 69 115 131 130 130 127 123 122 121 118 117 117 121 119 119 115 105 90 69 66 71 80 79 77 70 61 52 44 46 54 54 42 37
356 2 7 9 7 8 7 6 0 358 358 350 347 353 5 357 356 355 5 10 8 14 18 18 12 8 10 8 76 116 108 116 130 136 132 153 153 97 138 164 134 128 119 114 118 117 114 112 113 106 96 88 92 115 137 135 131 126 123 118 112 118 117 117 111 113 116 115 113 102 86 58 47 49 50 52 73 72 68 68 57 46 41 51 58
9 9 4 358 8 1 3 5 1 352 359 351 352 357 354 355 357 5 15 12 14 11 15 15 19 19 17 14 353 75 108 112 104 112 115 103 91 101 148 146 116 112 112 107 104 109 110 110 113 113 108 93 100 114 132 133 126 124 120 110 108 103 103 104 100 96 104 104 104 105 99 80 61 54 35 38 59 80 84 72 59 49 43 29 32
6 7 1 0 358 352 358 2 2 355 359 7 8 5 358 5 7 10 14 17 17 16 15 6 10 17 20 26 7 34 80 94 101 96 95 96 90 79 174 136 121 123 124 119 120 110 94 98 104 113 111 97 66 119 146 144 129 122 109 103 102 96 88 77 73 76 74 94 97 95 93 89 76 66 49 27 59 74 85 82 79 75 72 58 41
13 9 358 358 354 350 347 341 338 354 7 13 11 360 10 14 7 15 18 20 17 22 15 9 7 2 15 21 20 23 60 74 92 84 70 70 61 106 166 120 102 95 81 94 71 85 97 90 81 99 111 100 52 56 149 151 130 121 106 100 97 91 85 75 68 66 70 74 87 94 94 80 76 70 31 49 69 80 73 69 68 66 66 66 60
10 7 2 355 356 360 348 337 346 4 13 7 0 6 15 20 21 18 20 23 24 24 14 7 6 360 4 17 22 27 34 53 69 93 96 90 77 55 59 92 109 92 99 86 90 76 73 85 78 53 78 93 68 13 32 75 90 108 110 107 106 106 94 91 80 78 80 82 85 96 99 99 82 69 27 63 75 87 78 74 75 64 49 45 22
11 14 11 12 12 1 3 7 6 14 8 357 0 9 24 31 26 23 23 24 27 21 10 10 7 358 359 7 18 30 40 38 56 71 82 97 92 52 62 17 73 107 92 92 91 80 63 64 73 63 45 66 44 12 15 38 90 93 103 89 60 72 86 86 80 67 75 78 79 91 101 98 95 82 59 69 75 90 86 89 83 73 50 41 10
25 14 18 19 14 13 14 21 24 20 357 353 356 13 36 32 26 26 27 30 23 14 11 9 5 4 8 13 14 16 41 43 37 53 80 82 91 99 80 76 43 60 83 79 81 87 75 58 64 73 57 52 43 21 17 49 99 110 105 108 113 108 96 92 95 80 57 72 64 52 67 84 94 90 73 65 61 78 86 81 96 87 74 51 360
23 11 13 19 17 31 31 26 21 6 348 352 349 24 42 32 27 28 27 26 15 7 3 9 12 18 22 22 17 17 19 28 33 32 49 85 105 97 95 89 81 64 77 68 56 72 83 72 67 62 57 38 44 30 19 24 71 87 101 105 109 114 114 103 86 88 89 63 59 63 58 71 90 82 73 67 62 67 86 82 79 81 80 59 346
357 353 352 27 31 37 36 29 14 359 2 352 360 28 39 30 28 31 20 9 357 356 13 20 20 24 29 30 26 21 18 18 18 38 33 33 76 104 93 91 94 88 84 82 72 64 59 67 58 59 61 42 33 48 31 30 50 71 86 101 91 102 109 105 97 86 80 82 64 52 49 38 59 70 71 63 64 63 72 73 59 81 71 105 293
41 29 22 26 32 32 28 22 11 5 4 0 6 34 36 28 30 25 4 353 355 1 18 29 32 33 32 30 29 24 25 17 8 25 61 31 16 89 102 97 88 92 85 82 80 82 76 62 64 47 56 50 34 41 53 37 46 60 64 79 95 84 103 112 100 93 84 73 63 58 53 43 58 65 65 63 58 53 49 67 57 73 94 92 63
43 44 34 42 46 39 35 25 9 5 1 2 10 34 31 27 28 9 351 357 353 356 24 31 37 38 38 34 27 28 29 20 19 13 50 61 37 72 89 106 106 93 91 88 86 89 89 80 67 54 49 52 39 42 49 51 46 54 60 67 78 88 83 87 101 98 90 93 78 77 69 73 72 68 67 62 60 57 54 46 43 42 46 98 86
52 51 40 45 60 51 43 34 28 22 15 12 14 24 24 27 17 348 359 3 0 0 28 37 33 30 39 38 30 27 31 31 21 11 38 56 49 65 77 89 100 106 106 99 94 95 90 84 82 66 53 48 39 47 50 50 51 53 54 54 57 59 65 75 78 90 94 98 95 72 76 87 81 74 68 70 67 57 59 60 73 87 86 75 66
54 45 33 49 57 52 45 42 31 26 21 21 21 28 22 18 354 352 4 5 360 1 29 41 39 29 29 37 40 29 25 31 26 15 38 49 52 66 80 64 82 89 98 102 93 88 84 83 76 74 64 51 36 38 43 39 48 55 53 53 52 54 52 72 82 73 77 67 89 107 86 76 73 74 75 84 70 47 39 50 50 52 56 57 57
40 40 36 44 52 52 46 40 31 23 21 21 18 25 32 355 343 358 4 9 12 16 22 28 40 44 33 38 39 34 29 28 29 22 32 39 60 60 69 72 73 71 75 82 81 74 79 79 81 74 68 56 40 47 45 35 30 48 56 56 65 68 73 75 86 91 93 91 89 88 85 86 84 84 73 45 38 43 56 56 52 50 49 47 44
40 26 37 41 43 44 39 37 31 14 19 17 16 14 20 3 0 352 2 14 22 26 26 25 29 39 45 46 49 35 32 30 29 28 36 32 37 59 62 54 56 67 73 74 73 74 76 80 83 78 74 64 58 47 38 38 20 37 38 38 52 62 70 79 74 77 79 79 76 77 86 90 93 85 83 78 68 54 49 43 39 37 39 32 33
46 36 49 56 52 48 38 34 24 8 14 19 20 11 4 4 357 360 6 30 31 26 28 27 32 35 41 48 53 49 46 39 39 36 37 39 38 43 59 53 45 40 68 77 80 76 75 79 87 89 89 77 64 51 39 27 16 32 45 58 62 58 58 81 91 82 85 83 86 83 72 63 70 68 58 53 50 50 51 46 37 32 29 26 24
42 36 49 61 57 50 44 40 25 12 17 22 18 11 6 7 1 3 31 57 47 35 35 28 32 44 46 44 54 58 62 51 43 49 46 38 30 34 58 63 42 34 48 69 80 71 64 53 71 66 82 89 61 54 8 18 34 33 23 59 62 74 90 82 82 106 99 79 74 65 63 59 56 65 57 50 41 45 41 42 45 34 29 35 33
47 62 64 62 53 57 50 43 27 21 27 25 18 10 6 8 9 8 20 57 59 55 44 28 24 41 51 56 61 60 58 59 54 54 59 58 50 51 49 67 60 48 58 56 65 75 63 64 77 43 35 83 109 119 77 95 86 71 67 73 83 63 76 113 95 80 91 79 70 73 59 67 62 65 62 54 45 46 43 34 30 30 34 37 36
67 80 64 62 54 55 54 41 21 24 34 28 26 15 8 6 8 8 19 40 50 62 60 45 39 31 28 61 73 72 66 64 58 62 65 69 60 44 46 56 68 68 64 59 58 55 49 41 61 77 22 21 4 310 58 128 115 100 92 75 56 82 102 107 122 91 48 70 82 79 69 64 68 72 72 62 52 52 38 39 27 38 47 41 37